DW1231 Weather Reports


time (UTC)temp
F
wind
direction
speed
knots
gust
knots
rain 1hr
in
rain 24hr
in
rain mn
in
humidity
%
barometer
mb
20260505195507 87 173 12.2 15.6 0.00 0.00 0.00 56 1008.2
20260505194433 87 165 7.0 8.7 0.00 0.00 0.00 58 1008.2
20260505193433 87 164 8.7 13.0 0.00 0.00 0.00 58 1008.2
20260505192433 85 184 7.8 11.3 0.00 0.00 0.00 60 1008.4
20260505191433 87 181 7.8 13.0 0.00 0.00 0.00 59 1008.2
20260505190433 85 168 4.3 7.0 0.00 0.00 0.00 62 1008.4
20260505185453 84 185 3.5 6.1 0.00 0.00 0.00 63 1008.4
20260505184433 84 179 7.8 12.2 0.00 0.00 0.00 62 1008.4
20260505183433 83 138 4.3 6.1 0.00 0.00 0.00 64 1008.4
20260505182434 83 284 9.6 13.0 0.00 0.00 0.00 63 1008.4
20260505181433 84 200 6.1 7.8 0.00 0.00 0.00 63 1008.7
20260505180434 84 142 7.0 7.8 0.00 0.00 0.00 62 1008.5
20260505175453 83 131 6.1 7.0 0.00 0.00 0.00 64 1008.6
20260505174433 82 166 7.0 9.6 0.00 0.00 0.00 66 1008.5
20260505173433 82 149 6.1 8.7 0.00 0.00 0.00 66 1008.5
20260505172433 82 125 6.1 9.6 0.00 0.00 0.00 65 1008.6
20260505171433 81 131 6.1 7.8 0.00 0.00 0.00 66 1008.5
20260505170433 81 133 6.1 7.8 0.00 0.00 0.00 66 1008.7
20260505165513 81 142 2.6 5.2 0.00 0.00 0.00 67 1008.6
20260505164433 81 191 7.8 12.2 0.00 0.00 0.00 66 1008.8
20260505163433 80 117 4.3 6.1 0.00 0.00 0.00 68 1008.7
20260505162434 80 211 7.0 9.6 0.00 0.00 0.00 67 1008.7
20260505161453 80 146 7.0 8.7 0.00 0.00 0.00 68 1008.5
20260505160433 79 179 7.0 8.7 0.00 0.00 0.00 69 1008.5
20260505152433 78 205 8.7 13.9 0.00 0.00 0.00 72 1008.3
20260505151433 77 234 7.0 9.6 0.00 0.00 0.00 74 1008.6
20260505150434 77 122 7.0 11.3 0.00 0.00 0.00 73 1008.6
20260505140434 74 184 3.5 7.0 0.00 0.00 0.00 79 1008.6
20260505124433 72 136 6.1 7.8 0.00 0.00 0.00 81 1008.3
20260505123433 72 128 4.3 7.0 0.00 0.00 0.00 81 1007.9
20260505122434 72 132 7.8 11.3 0.00 0.00 0.00 81 1007.9
20260505121453 72 209 4.3 5.2 0.00 0.00 0.00 81 1007.8
20260505120433 72 165 7.0 9.6 0.00 0.00 0.00 81 1007.7
20260505115434 72 112 5.2 7.8 0.00 0.00 0.00 81 1007.8
20260505114433 72 142 3.5 6.1 0.00 0.00 0.00 81 1007.6
20260505113434 71 113 4.3 8.7 0.00 0.00 0.00 82 1007.4
20260505112433 71 132 5.2 6.1 0.00 0.00 0.00 82 1007.5
20260505111434 71 145 5.2 7.8 0.00 0.00 0.00 82 1007.4
20260505110433 71 135 3.5 6.1 0.00 0.00 0.00 82 1007.3
20260505101434 72 185 5.2 7.8 0.00 0.00 0.00 80 1007.6
20260505100454 72 129 7.0 11.3 0.00 0.00 0.00 80 1007.5
20260505095433 72 168 7.8 12.2 0.00 0.00 0.00 81 1007.5
20260505094434 71 202 7.8 12.2 0.00 0.00 0.00 81 1007.8
20260505093453 71 231 9.6 13.9 0.00 0.00 0.00 81 1007.7
20260505092433 71 170 7.8 9.6 0.00 0.00 0.00 81 1007.8
20260505091433 71 130 4.3 6.1 0.00 0.00 0.00 82 1007.8
20260505090433 71 38 9.6 13.0 0.00 0.00 0.00 82 1007.7
20260505085433 71 177 7.0 8.7 0.00 0.00 0.00 82 1007.5
20260505084434 71 96 8.7 11.3 0.00 0.00 0.00 82 1007.7
20260505083454 71 166 5.2 9.6 0.00 0.00 0.00 82 1007.9
20260505082408 71 169 5.2 8.7 0.00 0.00 0.00 81 1007.8
20260505081416 71 115 7.0 8.7 0.00 0.00 0.00 81 1007.8
20260505080408 71 187 5.2 8.7 0.00 0.00 0.00 80 1008.0
20260505075416 71 91 10.4 18.2 0.00 0.00 0.00 80 1008.0
20260505074408 72 345 5.2 7.8 0.00 0.00 0.00 79 1008.2
20260505073417 72 134 13.9 15.6 0.00 0.00 0.00 79 1008.2
20260505072409 72 185 2.6 5.2 0.00 0.00 0.00 78 1008.5
20260505071416 72 205 7.0 9.6 0.00 0.00 0.00 78 1008.6
20260505070334 72 160 10.4 13.9 0.00 0.00 0.00 77 1008.9
20260505065334 72 121 6.1 8.7 0.00 0.00 0.00 77 1009.0
20260505064334 72 93 7.0 9.6 0.00 0.00 0.00 76 1009.0
20260505063334 72 91 4.3 6.1 0.00 0.00 0.00 76 1009.1
20260505062354 73 93 3.5 7.0 0.00 0.00 0.00 76 1009.2
20260505061312 73 153 4.3 5.2 0.00 0.00 0.00 75 1009.0
20260505060305 73 64 6.1 7.8 0.00 0.00 0.00 74 1009.0
20260505055312 73 250 6.1 7.8 0.00 0.00 0.00 74 1009.3
20260505054325 73 126 6.1 8.7 0.00 0.00 0.00 73 1009.3
20260505053332 73 211 3.5 5.2 0.00 0.00 0.00 73 1009.3
20260505052304 73 92 4.3 5.2 0.00 0.00 0.00 73 1009.7
20260505051312 73 124 7.0 8.7 0.00 0.00 0.00 72 1009.7
20260505050304 73 133 4.3 7.0 0.00 0.00 0.00 72 1009.4
20260505041313 73 144 4.3 7.0 0.00 0.00 0.00 70 1009.5
20260505040324 74 230 4.3 6.1 0.00 0.00 0.00 70 1009.9
20260505035312 74 172 3.5 5.2 0.00 0.00 0.00 70 1009.6
20260505034304 74 132 6.1 9.6 0.00 0.00 0.00 69 1009.6
20260505033312 74 160 5.2 7.0 0.00 0.00 0.00 69 1009.8
20260505032305 74 123 4.3 5.2 0.00 0.00 0.00 69 1009.9
20260505031313 74 100 3.5 5.2 0.00 0.00 0.00 68 1009.8
20260505030305 74 148 2.6 5.2 0.00 0.00 0.00 68 1009.8
20260505025333 74 110 4.3 6.1 0.00 0.00 0.00 68 1010.0
20260505024305 75 113 6.1 8.7 0.00 0.00 0.00 67 1009.8
20260505023313 75 136 4.3 6.1 0.00 0.00 0.00 67 1009.8
20260505022305 75 165 4.3 7.8 0.00 0.00 0.00 66 1009.9
20260505021333 75 138 4.3 6.1 0.00 0.00 0.00 66 1009.8
20260505020304 76 186 6.1 7.8 0.00 0.00 0.00 65 1009.5
20260505015312 76 165 6.1 7.0 0.00 0.00 0.00 65 1009.7
20260505014305 76 200 7.0 8.7 0.00 0.00 0.00 64 1009.5
20260505013312 76 358 5.2 7.0 0.00 0.00 0.00 63 1009.8
20260505012324 76 138 6.1 7.8 0.00 0.00 0.00 63 1009.7
20260505011313 76 174 4.3 5.2 0.00 0.00 0.00 63 1009.7
20260505010325 77 139 7.0 8.7 0.00 0.00 0.00 62 1009.6
20260505005313 77 96 7.0 11.3 0.00 0.00 0.00 62 1009.6
20260505004305 77 88 4.3 6.1 0.00 0.00 0.00 61 1009.5
20260505003313 77 135 4.3 5.2 0.00 0.00 0.00 61 1009.7
20260505002305 78 144 7.0 9.6 0.00 0.00 0.00 60 1009.8
20260505001314 79 113 8.7 11.3 0.00 0.00 0.00 59 1009.8
20260505000305 79 128 6.1 8.7 0.00 0.00 0.00 58 1009.7
20260504235313 79 128 6.1 8.7 0.00 0.00 0.00 58 1009.8
20260504234305 79 176 3.5 7.0 0.00 0.00 0.00 58 1009.8
20260504233313 79 117 7.0 8.7 0.00 0.00 0.00 57 1009.8
20260504232325 79 217 8.7 13.9 0.00 0.00 0.00 57 1009.9
20260504231313 80 190 6.1 7.8 0.00 0.00 0.00 56 1010.1
20260504230305 81 158 3.5 7.0 0.00 0.00 0.00 55 1010.2
20260504225313 81 162 8.7 13.0 0.00 0.00 0.00 54 1010.6
20260504224305 81 179 12.2 17.4 0.00 0.00 0.00 54 1010.3
20260504223333 81 151 13.0 19.1 0.00 0.00 0.00 54 1010.3
20260504222305 82 176 9.6 18.2 0.00 0.00 0.00 53 1010.1
20260504221313 82 159 8.7 14.8 0.00 0.00 0.00 53 1010.2
20260504220305 82 193 5.2 7.0 0.00 0.00 0.00 54 1010.6
20260504215314 82 138 7.0 17.4 0.00 0.00 0.00 53 1010.7
20260504214305 81 160 7.8 9.6 0.00 0.00 0.00 54 1010.9
20260504213313 81 145 6.1 12.2 0.00 0.00 0.00 53 1011.0
20260504212305 81 310 9.6 12.2 0.00 0.00 0.00 53 1011.1
20260504211333 81 186 10.4 13.0 0.00 0.00 0.00 52 1011.5
20260504210305 81 122 3.5 5.2 0.00 0.00 0.00 52 1011.5
20260504205314 82 208 6.1 7.0 0.00 0.00 0.00 51 1011.7
20260504204305 81 116 7.0 9.6 0.00 0.00 0.00 51 1011.7
20260504203313 81 167 15.6 22.6 0.00 0.00 0.00 50 1012.0
20260504202305 81 236 6.1 8.7 0.00 0.00 0.00 50 1012.2
20260504201313 81 150 7.8 13.9 0.00 0.00 0.00 49 1012.5
20260504200305 81 89 10.4 14.8 0.00 0.00 0.00 50 1012.7